Iridium Next SV144

operational
NORAD ID: 43249 Int'l Des: 2018-030 Owner: IRIDS Country: US Constellation: Iridium NEXT
LEOCIRCULARPOLAR

Iridium Next SV144について

説明を読み込み中...

リアルタイム位置

3D地球を読み込み中...

次回通過

高度履歴

Altitude vs Time

uPlot chart will show altitude changes over time

軌道要素

1 43249U 18030A 26071.18258638 .00000026 00000-0 21436-5 0 9990
2 43249 86.4005 330.9741 0001987 89.3863 270.7560 14.34217553416234
Epoch: Mar 12, 2026 • Age: 24 hours

現在のステータス

高度 806.5 km
速度 7.45 km/s
衛星直下点 -75.41°S, 5.94°W
打ち上げ日 Mar 30, 2018
運用期間 7.9 years
タイプ communications

技術仕様

分類 Payload
質量 860.00 kg
乾燥質量 700.00 kg
総質量 860.00 kg
長さ 3.10 m
直径 1.50 m
スパン 9.40 m
形状 Half Hex Prism+2 pan
製造者 OATKGA
バスタイプ EliteBus
フェーズステータス In Orbit
所有者/国 IRIDS/US

大規模コンステレーション

Loading constellations...